User: anonymous   Login
Location: ????????
(55.6189°N, 38.3031°E)
Time: 22:49:51
(UTC+00:00)
Language:

COSMOS 2455 - Orbit

View from above orbital plane
View from above orbital plane
View from above satellite
View from above satellite

Ground track
Ground track

The orbit data is extracted from the following two-line orbital elements,

1 36095U 09063A   20027.49064204 -.00000089  00000-0 -98341-5 0  9990
2 36095  67.1474 164.2208 0003050 270.5331  89.5404 13.96762357519527
Epoch (UTC): 27 January 2020 11:46:31
Eccentricity: 0.0003050
inclination: 67.1474°
perigee height: 903 km
apogee height: 907 km
right ascension of ascending node: 164.2208°
argument of perigee: 270.5331°
revolutions per day: 13.96762357
mean anomaly at epoch: 89.5404°
orbit number at epoch: 51952

The dashed part of the orbit path shows where the satellite is in the earth's shadow,  

DLR